Weather History for Beale AFB, CA

Change the Weather History Date:

Monday, February 25, 2013

  Actual Average Record
Temperature  
Mean Temperature 50 °F -  
Max Temperature 63 °F 59 °F 73 °F (1997)
Min Temperature 37 °F 42 °F 33 °F (2011)
Degree Days  
Heating Degree Days 14    
Moisture  
Dew Point 32 °F    
Average Humidity 52    
Maximum Humidity 79    
Minimum Humidity 27    
Precipitation  
Precipitation 0.00 in - - ()
Sea Level Pressure  
Sea Level Pressure 30.22 in    
Wind  
Wind Speed 7 mph (NE)    
Max Wind Speed 10 mph    
Max Gust Speed -    
Visibility 10 miles    
Events      
Averages and records for this station are not official NWS values.
T = Trace of Precipitation, MM = Missing Value Source: NWS Daily Summary

Daily Weather History Graph

Daily Weather History Graph

Search for Another Location

Airport:

Trip Planner

Search our weather history database for the weather conditions in past years. The results will help you decide how hot, cold, wet, or windy it might be!

Date:

Astronomy

Feb. 25, 2013 Rise Set
Actual Time 6:43 AM PST 5:54 PM PST
Civil Twilight 6:16 AM PST 6:21 PM PST
Nautical Twilight 5:45 AM PST 6:52 PM PST
Astronomical Twilight 5:14 AM PST 7:23 PM PST
Moon 6:12 PM PST (2/25) 6:17 AM PST (2/25)
Length of Visible Light 12h 04m
Length of Day
11h 10m
Full, 100% of the Moon is Illuminated
Feb 25
Full
Feb 25
Full
Mar 4
Last Quarter
Mar 11
New
Mar 19
First Quarter

Hourly Weather History & Observations

Time (PST) Temp. Windchill Dew Point Humidity Pressure Visibility Wind Dir Wind Speed Gust Speed Precip Events Conditions
12:58 AM 45.7 °F 40.6 °F 30.0 °F 54% 30.23 in 10.0 mi East 10.4 mph - N/A   Clear
1:58 AM 45.0 °F 39.7 °F 30.4 °F 57% 30.24 in 10.0 mi East 10.4 mph - N/A   Clear
2:58 AM 44.6 °F 39.7 °F 30.4 °F 57% 30.25 in 10.0 mi East 9.2 mph - N/A   Clear
3:58 AM 45.5 °F 41.3 °F 30.4 °F 56% 30.24 in 10.0 mi East 8.1 mph - N/A   Clear
4:58 AM 46.4 °F 42.4 °F 30.6 °F 54% 30.24 in 10.0 mi East 8.1 mph - N/A   Mostly Cloudy
5:58 AM 42.8 °F 41.1 °F 29.8 °F 60% 30.24 in 10.0 mi SE 3.5 mph - N/A   Scattered Clouds
6:58 AM 38.1 °F - 30.0 °F 73% 30.26 in 10.0 mi Calm Calm - N/A   Mostly Cloudy
7:58 AM 41.7 °F - 34.5 °F 76% 30.28 in 10.0 mi WNW 2.3 mph - N/A   Scattered Clouds
8:58 AM 50.2 °F - 32.7 °F 51% 30.27 in 10.0 mi Variable 3.5 mph - N/A   Scattered Clouds
9:58 AM 56.7 °F - 34.0 °F 42% 30.26 in 10.0 mi South 6.9 mph - N/A   Clear
10:58 AM 57.9 °F - 34.7 °F 42% 30.26 in 10.0 mi SW 6.9 mph - N/A   Clear
11:56 AM 59.0 °F - 35.6 °F 42% 30.25 in 10.0 mi West 6.9 mph - N/A   Clear
12:58 PM 61.0 °F - 31.8 °F 33% 30.24 in 10.0 mi WNW 5.8 mph - N/A   Clear
1:58 PM 61.7 °F - 30.4 °F 31% 30.22 in 10.0 mi Variable 6.9 mph - N/A   Clear
2:58 PM 62.4 °F - 32.0 °F 32% 30.20 in 10.0 mi NW 8.1 mph - N/A   Clear
3:58 PM 63.1 °F - 28.8 °F 27% 30.18 in 10.0 mi NW 8.1 mph - N/A   Clear
4:58 PM 61.5 °F - 30.7 °F 31% 30.17 in 9.0 mi WNW 5.8 mph - N/A   Clear
5:58 PM 57.4 °F - 30.9 °F 37% 30.17 in 10.0 mi NW 3.5 mph - N/A   Clear
6:58 PM 51.8 °F - 30.2 °F 44% 30.17 in 10.0 mi ENE 2.3 mph - N/A   Clear
7:58 PM 44.1 °F 42.5 °F 33.4 °F 66% 30.17 in 10.0 mi East 3.5 mph - N/A   Clear
8:58 PM 41.5 °F 39.6 °F 32.4 °F 70% 30.19 in 10.0 mi ENE 3.5 mph - N/A   Clear
9:58 PM 40.5 °F 37.3 °F 30.9 °F 69% 30.19 in 10.0 mi NE 4.6 mph - N/A   Clear
10:58 PM 43.7 °F - 31.3 °F 62% 30.20 in 10.0 mi Calm Calm - N/A   Clear
11:58 PM 37.0 °F 31.6 °F 30.9 °F 79% 30.19 in 10.0 mi North 6.9 mph - N/A   Clear